RH
12 9 8 9 8 8 6 7 8 7 11 5 4 4 4 6 8 10 9 10 11 14 15 16 20 22 25 27 26 31 39 47 54 58 58 53 60 79 88 94 96 94 100 91 84 74 89 99 100 100 100 100 100 100
11 8 8 9 7 8 6 8 8 7 11 5 4 4 4 7 10 11 11 12 15 18 26 32 33 34 37 46 57 60 65 58 53 51 43 43 51 82 82 93 100 98 100 97 81 76 97 100 98 90 99 100 100 100
10 8 9 8 7 8 6 8 8 8 9 4 4 4 4 8 11 12 13 14 18 26 37 49 52 68 69 57 64 68 55 54 51 32 28 22 25 40 59 58 100 100 100 98 90 100 100 100 100 100 100 100 100 100
9 8 8 8 8 8 7 8 8 10 6 4 4 4 4 8 12 12 14 17 25 37 55 69 70 70 67 75 69 66 56 46 41 37 41 45 58 67 71 87 100 100 99 100 96 100 94 93 99 98 100 100 100 100
9 9 8 8 8 8 7 9 8 11 5 3 4 4 5 8 12 15 18 27 42 54 72 71 76 76 78 72 75 62 45 51 47 55 64 70 82 89 100 100 100 100 94 100 100 92 90 89 95 97 97 100 100 99
10 9 8 8 9 10 8 9 8 10 5 3 4 4 6 10 14 19 24 40 56 66 76 81 79 80 71 86 81 60 60 64 69 69 70 78 79 87 94 100 100 100 100 100 100 92 98 100 97 98 100 95 97 93
10 9 8 8 11 11 9 9 9 9 4 3 4 5 8 12 17 23 28 52 60 71 80 78 77 74 81 92 79 63 67 71 75 71 82 92 89 89 100 100 100 100 100 100 100 100 100 100 92 90 87 100 98 90
9 10 8 9 12 12 10 10 10 9 4 4 4 6 9 12 17 24 41 59 66 76 84 81 79 74 85 90 69 76 70 72 78 75 71 76 83 90 91 100 96 100 100 100 100 91 77 78 83 79 74 80 86 94
10 12 9 11 13 13 11 11 14 10 5 4 5 7 10 12 19 26 48 70 76 82 86 88 85 79 84 90 77 72 87 80 75 71 77 85 91 96 100 98 100 100 100 100 100 100 100 86 80 82 77 74 70 69
12 14 11 13 15 15 13 11 16 10 6 5 6 8 9 12 23 34 58 82 76 88 97 91 95 86 87 86 80 84 75 81 93 94 95 91 91 100 97 99 100 100 100 100 100 100 100 100 100 100 100 100 99 89
16 16 13 14 16 17 15 13 18 12 6 6 7 10 13 17 27 41 78 87 83 88 98 98 98 95 79 96 91 92 80 77 94 100 100 91 92 100 100 100 100 100 100 100 100 99 98 98 99 99 100 100 100 100
18 19 15 15 18 19 18 16 21 17 8 7 9 12 14 22 30 48 86 95 92 88 97 96 94 100 92 89 99 99 98 92 91 91 96 100 99 100 100 96 81 77 84 99 100 100 100 98 94 92 98 100 100 99
21 21 17 16 20 21 22 22 23 24 12 9 10 12 16 27 38 53 100 92 98 96 89 95 94 99 100 94 90 100 100 98 96 84 85 97 87 85 92 90 92 97 94 94 98 100 100 100 100 88 80 76 73 75
24 24 20 18 20 22 24 40 31 33 18 11 11 14 20 36 51 56 76 91 94 99 95 93 93 90 95 100 100 100 100 100 98 98 97 100 99 97 99 100 97 100 100 100 100 94 95 100 100 100 97 98 100 100
22 26 24 19 21 22 24 49 52 49 32 17 13 14 20 32 58 57 62 90 98 98 97 96 94 91 93 99 100 100 100 100 100 100 97 100 100 100 100 100 100 100 100 100 98 94 95 99 96 93 92 95 91 80
23 29 28 23 22 21 24 36 62 60 53 31 19 15 15 17 31 46 48 60 96 97 94 90 97 95 82 74 78 90 100 100 100 100 100 98 97 100 100 97 96 100 100 100 99 97 97 98 97 93 91 88 87 93
24 31 29 26 22 21 23 29 61 70 66 54 31 20 16 19 16 16 27 40 60 94 93 92 94 96 99 93 86 76 82 72 77 88 100 100 100 100 100 100 100 100 100 98 95 92 92 92 94 92 91 90 90 98
29 30 29 28 23 22 22 25 43 70 70 77 66 37 22 19 20 20 13 16 30 50 80 98 97 100 100 100 100 92 81 71 73 77 83 84 90 100 100 100 100 100 100 100 97 85 79 77 80 89 93 95 93 91
31 30 29 28 25 24 23 24 29 51 73 78 78 77 48 29 24 21 20 22 17 21 34 68 86 100 100 96 98 100 98 91 86 81 83 92 95 97 100 100 100 100 100 100 100 98 97 97 97 97 96 95 95 97
29 30 28 29 27 25 24 24 26 34 56 75 80 76 78 73 54 33 26 24 21 23 22 26 56 94 100 98 97 99 96 97 98 91 82 82 89 92 92 94 97 100 99 94 94 97 100 100 100 99 96 94 95 95
29 28 27 29 28 26 25 25 26 29 39 58 76 83 84 80 75 67 61 48 32 30 22 23 33 36 54 74 85 95 98 100 100 100 99 100 92 86 89 91 92 92 90 86 86 92 100 100 100 98 98 97 95 95
27 27 26 29 27 25 26 26 26 26 34 47 63 73 80 85 86 86 78 65 58 50 40 31 26 20 25 30 31 44 70 88 97 99 100 100 100 97 97 97 99 99 98 93 89 90 95 97 97 98 97 96 99 100
26 26 27 28 29 30 29 25 26 26 28 41 58 70 75 78 85 92 89 77 63 55 48 47 46 35 28 23 17 20 26 36 58 90 98 100 100 100 100 100 100 100 100 100 96 93 96 98 95 96 98 100 99 99
24 26 27 30 30 30 26 26 26 26 27 38 53 65 72 73 79 86 86 79 72 64 50 38 34 34 35 27 22 19 15 18 24 40 66 91 100 100 100 100 100 100 100 100 97 96 99 99 99 99 100 96 96 99
25 26 29 30 28 27 26 25 26 26 26 34 46 53 62 68 72 76 75 70 66 56 43 33 26 24 23 23 21 17 18 18 14 19 31 58 77 85 96 98 100 100 100 100 100 100 100 100 100 100 100 92 88 93
25 28 29 32 30 26 26 26 25 25 27 33 43 50 57 64 68 64 62 56 44 37 29 22 17 15 14 15 16 15 14 17 19 16 14 20 38 69 85 88 98 99 98 99 100 100 100 100 100 100 97 87 89 91
24 28 30 27 27 26 25 24 24 26 29 36 39 44 52 58 58 51 43 32 22 16 14 12 11 11 10 10 12 13 13 14 17 18 15 12 15 24 43 74 94 90 87 90 92 95 98 99 100 94 88 88 89 91
25 27 27 27 27 27 26 26 27 28 32 36 43 52 52 47 44 36 23 14 11 10 8 8 7 7 6 7 7 8 10 12 15 18 16 15 14 15 21 34 48 54 63 69 72 78 85 90 87 78 79 87 89 88
26 27 28 27 26 26 26 26 27 31 38 45 48 45 40 34 25 16 12 10 8 6 4 4 4 4 4 4 5 5 7 10 12 14 14 15 16 16 21 24 25 37 54 60 67 67 72 75 65 64 70 76 79 79
27 27 26 24 24 24 26 27 29 35 42 50 48 38 30 20 14 11 9 7 5 3 3 3 3 3 3 3 4 4 6 8 9 11 12 12 14 17 19 20 24 30 36 42 51 52 44 40 45 52 58 63 65 62
24 23 25 26 25 26 27 34 44 52 57 51 40 34 20 14 12 10 7 4 3 3 4 4 3 3 3 3 4 4 4 6 7 8 9 10 12 14 14 19 24 28 33 31 29 28 32 37 43 49 51 50 48 46
24 25 26 25 26 30 42 56 62 61 57 46 36 21 14 14 11 7 5 4 4 4 4 4 3 4 4 3 4 4 4 5 6 7 7 7 9 11 12 14 17 18 20 27 31 31 30 28 28 30 32 34 34 32
25 26 26 28 37 52 60 66 64 63 53 36 22 15 15 13 8 5 4 4 4 5 5 4 4 4 4 4 4 4 4 5 6 6 6 7 8 8 8 9 12 14 15 17 19 20 21 22 22 22 22 22 21 22
Wind_Speed
113 110 104 103 99 93 88 80 73 66 63 52 42 30 19 12 8 8 14 15 17 19 21 23 26 27 29 29 30 29 29 30 33 36 38 36 32 33 30 19 42 43 43 35 31 17 20 13 12 6 7 5 5 5
109 104 100 101 92 86 82 75 68 64 58 48 37 25 16 9 8 10 14 15 19 23 27 31 34 34 34 33 32 31 28 27 25 23 23 25 26 30 28 34 49 45 44 36 8 14 8 7 7 9 7 7 8 6
103 97 95 94 87 81 77 69 64 60 54 42 31 21 13 9 10 15 18 22 26 31 38 39 38 37 34 29 25 21 18 14 13 19 21 28 33 35 38 44 51 43 37 30 20 9 9 6 4 8 7 7 10 8
96 90 89 87 81 77 72 65 59 56 50 37 26 18 13 11 14 17 22 27 32 39 40 41 37 33 28 26 20 14 12 23 23 31 39 46 48 41 36 36 45 40 33 28 21 24 14 12 14 14 13 11 11 12
91 86 82 81 76 73 69 61 55 51 43 32 24 14 11 13 15 20 24 32 38 41 41 39 33 31 30 25 19 14 18 28 36 43 45 47 41 38 29 24 26 21 24 24 26 22 20 18 15 15 15 15 12 12
87 81 77 74 70 69 65 58 52 48 38 27 19 11 11 14 16 23 30 37 40 41 39 35 31 34 29 24 22 26 38 42 41 42 43 42 38 37 32 21 21 17 13 13 11 13 11 10 12 15 15 15 15 14
83 75 72 69 65 65 61 55 49 44 34 24 16 9 13 17 23 31 35 42 42 40 37 34 30 33 29 24 24 30 33 37 36 38 36 34 31 31 23 17 13 12 11 12 11 10 10 9 8 10 13 15 17 17
76 69 68 64 60 60 57 52 47 41 31 21 13 10 16 20 24 28 36 43 42 40 36 32 28 32 30 25 24 25 28 33 32 29 29 27 24 24 22 18 17 16 17 16 13 13 11 10 9 11 12 15 17 19
68 62 62 58 54 56 53 47 44 38 28 18 10 11 17 18 20 28 37 43 43 40 35 32 27 31 31 27 26 26 26 26 29 30 28 25 23 23 23 21 20 16 11 8 6 7 6 6 5 6 8 11 14 17
61 56 58 53 49 51 50 43 40 33 25 16 7 12 16 15 23 29 38 44 44 41 37 34 29 30 31 29 27 26 27 26 25 24 23 23 23 26 22 18 16 14 14 14 11 10 7 5 5 5 7 9 9 11
55 52 53 48 44 46 47 40 37 30 22 14 7 11 13 15 24 33 41 45 45 44 40 37 34 32 32 32 30 28 26 28 27 27 26 24 24 22 20 17 16 17 19 16 14 12 12 11 10 11 12 13 13 13
50 48 48 43 39 41 44 38 34 30 21 12 4 9 13 16 21 36 44 47 48 48 44 41 38 35 34 33 32 31 30 29 28 29 27 25 24 24 24 22 21 20 19 16 17 17 17 17 18 19 19 19 18 18
47 43 43 39 35 36 38 37 31 28 21 12 4 9 13 17 20 37 53 54 52 49 47 44 41 38 36 33 33 33 34 32 31 29 29 29 28 26 24 23 22 23 22 21 21 22 22 22 20 18 18 19 20 20
43 39 39 36 32 30 30 31 30 27 22 12 5 10 15 22 27 39 49 52 52 53 51 49 46 43 41 38 35 34 36 36 36 34 33 32 31 30 29 28 28 27 27 26 24 22 21 21 21 21 22 23 24 27
39 36 37 34 30 26 25 24 26 26 23 16 7 11 22 29 34 38 40 49 54 56 56 54 52 51 46 46 45 43 41 41 39 39 37 36 35 34 32 32 31 30 28 27 26 25 26 26 28 29 30 31 32 31
35 33 35 34 29 25 23 20 21 20 21 19 13 10 21 31 36 39 38 43 53 58 59 57 57 55 53 50 51 51 51 50 47 44 42 41 39 38 36 36 35 35 34 34 34 34 34 34 35 35 36 37 37 35
33 32 33 34 31 25 21 21 19 19 18 19 18 13 14 25 38 38 40 42 47 56 60 61 60 59 57 54 54 54 56 53 49 49 48 48 46 45 44 43 43 42 41 41 41 41 42 42 43 42 40 38 37 37
34 34 31 34 33 25 22 20 19 18 18 18 19 18 15 16 24 36 41 40 45 50 57 63 65 63 62 61 63 62 60 57 55 52 50 49 46 45 45 44 43 44 44 45 45 43 42 41 41 42 42 41 40 40
36 35 32 33 34 29 25 21 20 18 20 21 17 18 20 18 18 23 30 39 45 48 50 57 63 69 70 69 69 68 66 63 61 59 57 54 53 51 50 49 48 48 48 49 48 46 46 45 45 45 45 45 46 47
35 34 32 33 34 32 28 25 23 22 20 24 23 20 19 19 22 23 23 28 36 40 45 50 57 65 73 78 77 75 74 72 71 68 65 63 61 60 59 57 56 55 55 53 51 50 50 51 51 51 51 51 52 52
34 34 33 34 35 33 31 29 25 25 24 24 27 26 25 24 23 22 24 28 30 32 39 44 53 61 67 73 78 81 81 80 79 77 74 71 69 68 66 65 64 63 62 61 59 57 58 58 58 58 59 59 59 60
35 34 33 34 36 35 34 32 30 28 27 27 28 30 30 29 29 31 32 30 31 34 38 41 44 51 60 66 70 75 80 84 84 84 83 79 77 76 74 71 69 69 69 69 67 65 65 66 66 65 65 66 67 67
35 34 33 35 35 36 37 35 32 31 30 31 31 33 35 35 35 36 38 41 40 40 39 42 46 50 52 57 62 66 71 77 81 86 87 87 84 82 80 78 77 76 74 74 72 71 70 70 70 70 70 71 70 69
34 33 33 35 37 39 38 37 34 34 34 33 34 35 38 39 39 41 44 48 49 50 49 46 47 49 54 59 58 59 62 68 74 80 82 86 89 88 86 84 81 79 78 78 77 76 75 75 74 74 74 74 74 74
33 33 35 37 39 40 38 37 36 35 35 36 38 37 39 41 43 46 50 52 55 57 56 53 50 52 53 57 61 59 57 61 66 71 77 81 83 83 84 84 83 80 78 77 76 75 74 74 75 75 75 77 75 73
32 34 35 37 39 40 39 39 38 35 37 38 40 40 42 43 46 50 54 57 58 58 56 56 54 53 53 54 58 60 57 57 60 64 69 73 80 82 82 82 82 83 81 80 80 80 79 79 78 77 78 76 72 71
33 34 37 38 40 40 39 38 37 37 38 40 43 43 43 46 50 53 55 55 54 53 53 53 52 51 51 52 54 57 57 57 59 62 64 63 68 73 80 82 83 82 81 80 79 77 76 75 76 77 77 75 73 70
34 34 37 39 38 39 38 37 38 39 40 42 43 44 47 50 52 53 51 49 48 48 48 48 48 49 49 49 52 54 56 57 58 62 62 60 63 67 70 75 80 80 79 78 77 76 75 75 76 76 74 74 73 72
33 35 37 38 38 38 38 38 40 40 41 43 44 47 49 50 48 46 44 45 45 42 41 41 43 44 43 45 47 50 53 56 58 61 61 59 60 65 69 72 71 72 75 75 75 75 75 76 75 74 74 72 72 71
34 35 37 37 37 37 38 39 40 41 43 43 46 49 48 46 45 44 44 43 42 40 37 36 38 40 39 40 43 46 49 54 56 58 59 59 62 65 68 70 70 71 71 72 74 77 77 76 74 72 70 70 70 69
35 35 35 37 38 37 38 39 40 40 42 46 48 49 47 44 44 44 43 41 38 36 34 33 34 36 37 37 40 42 45 49 53 56 56 57 59 62 63 65 69 71 72 72 70 68 68 68 69 69 69 68 68 67
33 34 36 37 37 36 37 38 38 41 45 48 49 48 45 45 46 43 40 37 34 32 30 29 30 30 31 33 35 38 40 43 46 50 52 51 53 57 59 63 65 66 66 68 69 68 66 63 62 61 60 60 58 56
34 34 35 36 36 35 35 36 40 45 49 49 47 46 46 46 44 41 37 34 32 28 26 26 27 27 27 29 31 33 35 38 41 44 45 45 48 50 50 52 55 59 60 61 62 62 61 60 59 57 55 52 47 40
Wind_Direction
320 322 325 327 328 330 331 335 334 337 337 336 335 335 325 304 291 251 206 194 183 172 175 169 165 170 172 180 183 183 186 192 198 203 209 215 219 227 237 218 184 185 200 210 210 210 197 203 204 268 247 253 224 223
317 322 325 324 327 329 332 335 334 336 336 335 333 330 313 282 255 220 202 185 171 168 162 160 158 160 159 159 163 169 178 190 202 217 226 224 216 211 210 182 177 191 200 208 146 190 189 241 191 188 178 204 207 176
316 321 323 323 327 329 332 335 335 335 334 334 329 318 294 259 226 206 187 174 167 166 162 159 155 152 155 159 160 167 178 185 197 181 170 162 159 159 162 166 180 192 199 211 221 203 189 188 210 236 246 218 192 176
315 321 322 322 327 329 332 335 336 335 332 332 325 311 274 234 214 198 186 171 168 170 161 155 157 155 152 151 153 165 180 161 155 155 144 140 134 138 150 161 182 191 200 207 199 190 201 214 232 219 217 217 178 179
314 320 321 323 327 328 331 335 337 334 333 330 323 305 255 226 206 187 179 171 171 168 161 160 158 155 153 148 150 155 170 166 158 148 140 135 134 131 129 151 187 173 185 191 200 206 213 213 214 204 206 198 185 175
314 318 320 323 328 327 331 334 337 335 333 331 323 295 234 214 196 182 178 173 173 170 166 163 160 158 151 149 152 145 150 151 153 146 141 138 138 139 137 130 142 151 166 182 198 203 205 207 201 200 203 198 197 194
311 317 319 324 327 326 331 334 338 337 334 334 323 266 220 201 191 185 181 175 177 173 170 168 164 160 151 157 160 159 156 157 156 151 148 143 147 149 151 178 181 182 183 189 200 214 209 204 193 197 203 210 213 211
310 316 318 324 325 325 331 335 338 337 334 336 320 242 215 206 197 185 180 179 177 174 174 171 169 165 158 166 165 169 169 165 165 160 158 152 156 152 155 164 172 174 173 182 191 198 200 191 191 198 202 209 216 220
310 315 317 322 324 324 330 336 339 337 334 336 312 234 216 211 199 185 183 183 180 178 178 175 177 174 167 171 172 170 177 175 169 168 164 164 166 159 158 173 171 175 178 190 197 190 189 188 185 194 203 220 226 228
309 313 315 321 324 324 327 337 340 337 336 339 301 242 228 209 197 192 188 188 185 182 182 180 182 185 177 178 178 176 177 173 168 167 169 172 163 163 165 160 168 180 191 197 202 208 219 242 253 261 254 255 254 246
307 311 311 320 324 323 324 336 339 341 341 343 290 233 222 205 201 196 194 196 194 190 188 185 184 194 190 184 185 183 181 178 173 176 179 177 175 174 175 181 198 198 201 210 218 222 224 230 235 242 250 257 254 253
304 307 308 316 322 322 322 332 340 342 343 353 292 234 213 198 202 199 200 203 203 199 195 192 188 195 199 196 195 193 191 191 188 188 189 192 195 196 200 208 210 209 210 217 225 233 236 239 239 241 243 245 250 256
300 302 305 313 321 321 323 325 336 343 343 354 301 219 213 193 196 201 206 209 209 208 204 200 196 197 205 207 203 203 205 205 206 207 206 210 213 213 218 228 232 234 234 232 239 242 243 242 240 239 241 248 254 261
294 298 301 308 317 318 322 319 326 337 339 342 319 221 202 192 203 210 210 213 214 214 213 210 206 204 204 209 217 214 212 216 219 218 218 221 228 232 234 236 239 241 244 246 242 237 236 244 248 253 258 263 265 282
289 295 297 302 311 312 316 310 316 327 335 332 317 228 208 200 211 217 215 217 221 222 220 218 217 214 209 210 211 219 221 220 221 224 223 223 225 228 230 231 235 239 240 241 242 247 251 255 258 260 263 269 273 282
286 291 292 297 303 305 307 303 298 309 321 321 309 266 237 224 215 221 221 220 224 227 228 225 223 224 222 218 215 215 220 223 222 223 225 227 228 229 233 236 235 236 240 244 248 252 256 260 263 267 269 273 279 280
284 287 287 291 294 299 297 297 284 286 298 311 310 287 260 248 245 233 224 220 223 227 231 232 229 229 230 230 231 227 226 227 226 227 229 231 232 236 240 242 245 247 249 250 252 255 259 262 265 269 271 273 275 276
281 280 282 285 288 292 290 288 281 271 278 292 305 302 278 259 248 254 247 231 225 225 228 231 234 233 233 234 236 237 236 234 233 233 233 234 235 237 239 241 244 247 249 252 254 256 257 260 263 267 269 271 273 273
275 276 276 278 282 286 285 283 277 273 263 268 278 292 294 283 269 260 253 254 250 234 232 229 231 234 236 236 237 240 241 239 236 235 236 238 238 238 239 241 243 246 248 250 252 255 258 261 263 265 267 269 271 274
269 271 273 275 278 281 282 283 277 271 265 258 261 270 279 283 286 280 268 262 256 251 251 241 233 233 237 239 239 240 242 244 244 242 240 239 240 242 242 243 246 249 252 253 255 258 260 262 264 267 269 272 274 276
265 267 268 269 272 276 280 282 278 275 273 264 255 259 267 276 279 274 274 276 271 262 258 245 243 243 235 238 240 241 242 244 245 246 247 247 246 246 247 248 250 252 255 257 259 261 263 266 268 271 272 275 277 279
263 263 265 267 270 273 276 279 281 278 276 275 266 259 261 265 272 279 280 278 270 267 268 264 256 253 246 247 246 242 241 242 244 245 247 248 249 250 250 252 254 256 258 260 262 263 265 267 269 271 273 275 276 279
259 260 262 265 269 271 274 276 279 281 279 278 274 269 267 266 269 273 277 278 279 277 270 263 263 264 260 256 254 248 247 245 243 243 245 247 248 250 251 252 254 256 258 261 264 265 267 269 271 273 276 278 278 279
257 259 261 263 262 265 272 277 280 281 282 277 275 271 269 269 269 271 275 278 281 281 279 273 263 259 260 261 258 255 251 244 246 244 243 245 246 248 250 252 254 257 260 262 264 265 267 269 271 274 276 276 278 279
257 257 258 259 264 268 272 276 278 280 282 281 278 276 273 271 270 272 275 278 279 281 283 279 270 265 261 257 259 257 253 251 249 242 244 243 245 247 249 250 252 255 256 258 260 263 265 267 269 271 273 275 276 279
252 255 256 259 264 268 272 276 278 281 285 282 280 280 277 273 270 272 277 281 285 285 280 275 271 267 263 257 254 255 254 252 250 249 245 241 243 244 246 248 251 253 254 256 258 260 262 264 267 269 271 273 275 278
249 253 257 261 265 270 273 277 279 284 285 283 283 282 278 275 277 282 286 289 285 281 277 273 270 266 262 257 254 253 253 251 249 249 250 247 242 242 243 245 247 249 251 254 256 259 261 263 265 267 269 273 275 277
251 255 258 261 267 271 275 280 283 285 285 286 284 282 280 283 286 291 292 287 282 279 275 271 268 264 261 257 254 252 250 249 248 247 250 249 247 245 244 244 245 248 250 253 254 257 259 261 263 265 268 270 273 275
253 256 262 266 270 275 280 283 285 287 287 287 286 285 287 292 296 297 294 290 287 284 280 275 270 266 262 257 253 250 248 246 245 246 248 248 247 246 246 247 246 246 248 250 253 254 255 257 259 261 265 269 271 274
254 259 265 270 274 278 282 284 286 289 290 290 289 291 298 303 303 301 299 296 292 288 283 276 270 266 262 256 252 248 245 244 244 244 245 246 245 244 245 247 248 249 250 250 251 253 255 258 260 263 265 267 270 273
258 264 270 273 278 282 285 289 292 292 292 293 296 302 307 308 306 305 302 298 294 290 284 276 268 263 261 255 251 247 243 242 242 244 244 244 245 245 247 246 247 249 250 252 255 257 259 260 262 264 266 268 270 273
264 269 272 276 281 286 289 293 294 295 297 299 304 308 311 311 309 307 304 300 296 292 285 274 267 262 258 254 249 245 243 242 241 242 245 245 243 243 244 245 247 249 252 255 257 259 262 264 266 267 268 271 275 279
268 272 277 282 285 288 290 294 297 299 300 304 308 312 313 311 311 308 305 302 298 293 287 277 270 264 257 252 247 244 243 242 241 242 245 245 244 244 246 246 247 249 251 253 256 258 261 263 266 270 274 278 282 282